Date_and_time,latitude,longitude,wind_speed,RelWindDirFrom,WindDirFrom,air_pressure,air_temperature,relative_humidity,Temp,platform_speed_wrt_ground,air_pressure_at_mean_sea_level,platform_orientation
2019-08-18 23:40,50.6304433333333,-96.9807866666667,9.0,14.7,229,977.75,22.0,28,21.46,0.0,1003.24,211.1
2019-08-18 23:50,50.630445,-96.9807883333333,10.2,14.6,227,977.72,22.4,28,21.44,0.0,1003.18,211.1
2019-08-19 00:00,50.630445,-96.9807866666667,8.9,14.2,239,977.76,22.4,29,21.41,0.0,1003.21,270.0
2019-08-19 00:10,50.6304666666667,-96.9808066666667,8.7,16.4,237,977.76,22.2,30,21.39,0.0,1003.22,270.0
2019-08-19 00:20,50.6304383333333,-96.980765,9.7,16.6,239,977.75,22.3,30,21.37,0.0,1003.20,270.0
2019-08-19 00:30,50.6304533333333,-96.9808,10.8,17.9,245,977.78,22.4,30,21.36,0.0,1003.24,270.0
2019-08-19 00:40,50.6304616666667,-96.9807866666667,10.0,15.8,238,977.83,21.9,31,21.34,0.0,1003.31,270.0
2019-08-19 00:50,50.63046,-96.9807866666667,9.1,14.8,236,977.91,21.6,32,21.32,0.0,1003.39,270.0
2019-08-19 01:00,50.6304566666667,-96.980785,9.6,14.5,234,978.04,21.2,33,21.31,0.0,1003.55,270.0
2019-08-19 01:10,50.6304566666667,-96.9807866666667,8.7,13.3,234,978.12,21.0,33,21.30,0.0,1003.65,270.0
2019-08-19 01:20,50.6304566666667,-96.980785,7.8,11.2,231,978.10,20.8,34,21.28,0.0,1003.66,270.0
2019-08-19 01:30,50.6304566666667,-96.9807833333333,6.2,9.2,229,978.06,20.6,36,21.27,0.0,1003.63,270.0
2019-08-19 01:40,50.6304566666667,-96.9807616666667,6.0,10.6,226,978.07,20.4,37,21.25,0.0,1003.63,270.0
2019-08-19 01:50,50.630465,-96.9807783333333,5.4,7.5,225,978.10,20.3,38,21.23,0.0,1003.66,270.0
2019-08-19 02:00,50.6304616666667,-96.9807766666667,4.3,6.4,229,978.00,20.3,39,21.22,0.0,1003.58,8.4
2019-08-19 02:10,50.6304616666667,-96.9807766666667,5.0,6.9,230,978.09,20.2,38,21.21,0.0,1003.66,8.4
2019-08-19 02:20,50.6304616666667,-96.9807733333333,4.7,6.2,219,978.13,20.1,39,21.20,0.0,1003.71,8.4
2019-08-19 02:30,50.6304383333333,-96.9807583333333,5.4,7.2,210,978.23,19.8,41,21.19,0.0,1003.84,8.4
2019-08-19 02:40,50.630455,-96.980775,5.4,7.5,208,978.22,19.6,42,21.19,0.0,1003.86,8.4
2019-08-19 02:50,50.6304566666667,-96.980775,5.3,7.0,204,978.22,19.4,42,21.18,0.0,1003.88,8.4
2019-08-19 03:00,50.6304583333333,-96.9807733333333,4.7,6.0,197,978.23,19.3,45,21.19,0.0,1003.90,31.1
2019-08-19 03:10,50.6304583333333,-96.9807733333333,4.9,6.0,196,978.21,19.3,44,21.18,0.0,1003.90,31.1
2019-08-19 03:20,50.6304583333333,-96.9807733333333,5.2,6.7,187,978.13,19.1,47,21.18,0.0,1003.82,31.1
2019-08-19 03:30,50.6304533333333,-96.9807716666667,3.5,4.8,189,978.03,19.0,47,21.19,0.0,1003.74,31.1
2019-08-19 03:40,50.6304683333333,-96.9807716666667,3.7,5.0,193,978.03,18.8,48,21.17,0.0,1003.76,31.1
2019-08-19 03:50,50.63047,-96.9807766666667,5.5,7.2,201,978.15,18.5,47,21.16,0.0,1003.89,31.1
2019-08-19 04:00,50.6304683333333,-96.9807766666667,6.5,8.6,203,978.20,18.4,47,21.14,0.0,1003.95,3.2
2019-08-19 04:10,50.6304716666667,-96.980765,5.4,7.4,216,978.33,18.4,48,21.12,0.0,1004.08,3.2
2019-08-19 04:20,50.6304716666667,-96.9807683333333,4.3,5.6,224,978.26,18.2,48,21.11,0.0,1004.04,3.2
2019-08-19 04:30,50.63047,-96.98077,3.9,5.4,241,978.30,18.0,48,21.10,0.0,1004.09,3.2
2019-08-19 04:40,50.6304683333333,-96.98077,3.6,5.3,234,978.28,17.9,50,21.11,0.0,1004.09,3.2
2019-08-19 04:50,50.6304666666667,-96.9807716666667,3.4,4.8,222,978.18,17.7,53,21.12,0.0,1004.00,3.2
2019-08-19 05:00,50.630465,-96.9807733333333,3.9,6.1,257,978.28,17.6,53,21.12,0.0,1004.11,38.0
2019-08-19 05:10,50.630475,-96.9807883333333,4.0,6.0,281,978.36,17.5,54,21.10,0.0,1004.20,38.0
2019-08-19 05:20,50.63046,-96.98078,3.2,5.0,277,978.11,17.5,53,21.09,0.0,1003.95,38.0
2019-08-19 05:30,50.6304616666667,-96.9807816666667,3.7,6.0,311,977.96,17.6,54,21.08,0.0,1003.81,38.0
2019-08-19 05:40,50.6304516666667,-96.98078,3.9,5.8,291,978.16,17.4,54,21.07,0.0,1004.03,38.0
2019-08-19 05:50,50.630455,-96.9807833333333,4.2,6.9,292,978.21,17.3,54,21.06,0.0,1004.08,38.0
2019-08-19 06:00,50.6304566666667,-96.9807833333333,4.3,6.4,272,978.34,17.2,54,21.05,0.0,1004.23,234.7
2019-08-19 06:10,50.6304583333333,-96.980785,3.3,5.2,271,978.34,17.2,55,21.03,0.0,1004.23,234.7
2019-08-19 06:20,50.63046,-96.980785,3.2,4.5,266,978.31,17.0,57,21.02,0.0,1004.23,234.7
2019-08-19 06:30,50.6304616666667,-96.9807866666667,4.3,6.3,273,978.55,16.8,58,21.03,0.0,1004.48,234.7
2019-08-19 06:40,50.6304566666667,-96.9807783333333,4.0,6.6,280,978.77,16.6,59,21.02,0.0,1004.72,234.7
2019-08-19 06:50,50.630455,-96.9807833333333,4.5,7.1,311,978.50,17.0,56,21.00,0.0,1004.43,234.7
2019-08-19 07:00,50.63046,-96.9807866666667,3.6,5.2,293,978.58,17.1,55,20.98,0.0,1004.52,229.4
2019-08-19 07:10,50.6304566666667,-96.9807816666667,3.5,6.0,297,978.50,17.1,55,20.96,0.0,1004.44,229.4
2019-08-19 07:20,50.6304183333333,-96.9807883333333,3.4,4.8,292,978.41,17.1,55,20.95,0.0,1004.34,229.4
2019-08-19 07:30,50.6304533333333,-96.98076,3.8,5.7,283,978.50,17.0,55,20.94,0.0,1004.44,229.4
2019-08-19 07:40,50.63046,-96.980765,2.6,5.1,255,978.55,16.8,57,20.93,0.0,1004.51,229.4
2019-08-19 07:50,50.63046,-96.98077,3.1,5.0,276,978.57,16.6,59,20.92,0.0,1004.54,229.4
2019-08-19 08:00,50.6304583333333,-96.9807866666667,4.1,6.7,291,978.77,16.4,60,20.90,0.0,1004.75,229.4
2019-08-19 08:10,50.6304583333333,-96.9807866666667,4.6,6.7,299,978.87,16.2,60,20.87,0.0,1004.88,229.4
2019-08-19 08:20,50.6304316666667,-96.9807716666667,5.7,8.1,298,978.92,15.9,61,20.86,0.0,1004.95,229.4
2019-08-19 08:30,50.630455,-96.980775,5.8,8.5,304,979.02,15.6,62,20.86,0.0,1005.08,229.4
2019-08-19 08:40,50.6304566666667,-96.9807716666667,5.2,7.9,296,979.12,15.3,63,20.86,0.0,1005.17,229.4
2019-08-19 08:50,50.63047,-96.9807516666667,5.5,7.2,301,979.17,15.1,65,20.86,0.0,1005.23,229.4
2019-08-19 09:00,50.63044,-96.9807566666667,5.6,7.1,305,979.14,14.8,66,20.84,0.0,1005.22,119.2
2019-08-19 09:10,50.63046,-96.9808033333333,5.2,6.9,310,979.12,14.7,66,20.82,0.0,1005.21,119.2
2019-08-19 09:20,50.6304633333333,-96.9807766666667,4.6,6.4,307,979.24,14.5,67,20.81,0.0,1005.33,119.2
2019-08-19 09:30,50.6304616666667,-96.9807783333333,3.5,5.1,292,979.38,14.4,68,20.79,0.0,1005.50,119.2
2019-08-19 09:40,50.6304616666667,-96.980775,3.5,5.6,285,979.49,14.1,70,20.77,0.0,1005.63,119.2
2019-08-19 09:50,50.6304633333333,-96.9807733333333,4.2,6.1,271,979.63,13.7,71,20.77,0.0,1005.80,119.2
2019-08-19 10:00,50.6304633333333,-96.9807733333333,4.9,6.5,268,979.75,13.4,73,20.77,0.0,1005.95,66.4
2019-08-19 10:10,50.6304616666667,-96.9807716666667,4.6,6.4,270,979.83,13.2,74,20.78,0.0,1006.05,66.4
2019-08-19 10:20,50.6304533333333,-96.9807466666667,4.9,7.1,272,979.89,12.9,76,20.78,0.0,1006.14,66.4
2019-08-19 10:30,50.63045,-96.9807566666667,5.8,7.2,277,980.00,12.7,76,20.78,0.0,1006.28,66.4
2019-08-19 10:40,50.6304483333333,-96.980765,5.6,7.0,282,980.03,12.6,76,20.77,0.0,1006.32,66.4
2019-08-19 10:50,50.6304583333333,-96.980775,5.2,7.6,281,980.09,12.6,75,20.77,0.0,1006.40,66.4
2019-08-19 11:00,50.6304616666667,-96.98078,4.6,6.3,274,980.20,12.5,76,20.77,0.0,1006.52,12.6
2019-08-19 11:10,50.6304616666667,-96.9807816666667,4.6,6.4,273,980.24,12.2,77,20.76,0.0,1006.58,12.6
2019-08-19 11:20,50.6304583333333,-96.98078,4.8,6.5,272,980.29,12.0,79,20.74,0.0,1006.65,12.6
2019-08-19 11:30,50.630455,-96.9807766666667,5.3,7.0,275,980.35,11.7,80,20.73,0.0,1006.74,12.6
2019-08-19 11:40,50.6304533333333,-96.980775,5.2,6.9,272,980.46,11.6,80,20.73,0.0,1006.87,12.6
2019-08-19 11:50,50.6304533333333,-96.9807733333333,5.1,6.7,271,980.63,11.6,79,20.72,0.0,1007.06,12.6
2019-08-19 12:00,50.6304616666667,-96.9807733333333,5.3,6.8,270,980.72,11.7,78,20.72,0.0,1007.17,345.5
2019-08-19 12:10,50.63046,-96.98077,5.0,6.8,265,980.82,11.8,77,20.71,0.0,1007.27,345.5
2019-08-19 12:20,50.6304583333333,-96.9807716666667,4.4,6.6,260,980.93,12.1,75,20.70,0.0,1007.38,345.5
2019-08-19 12:30,50.6304583333333,-96.980775,4.0,5.8,265,981.05,12.3,74,20.70,0.0,1007.51,345.5
2019-08-19 12:40,50.6304566666667,-96.9807733333333,4.4,7.2,270,981.26,12.6,72,20.69,0.0,1007.70,345.5
2019-08-19 12:50,50.6304533333333,-96.9807683333333,4.3,6.6,272,981.31,12.7,70,20.69,0.0,1007.75,345.5
2019-08-19 13:00,50.6304616666667,-96.9807716666667,4.4,6.9,267,981.24,13.1,69,20.67,0.0,1007.67,0.0
2019-08-19 13:10,50.6304616666667,-96.9807716666667,4.6,8.1,279,981.32,13.6,67,20.66,0.0,1007.75,0.0
2019-08-19 13:20,50.6304566666667,-96.98077,5.8,8.9,273,981.43,13.9,66,20.65,0.0,1007.86,0.0
2019-08-19 13:30,50.6304566666667,-96.9807666666667,5.5,8.1,274,981.56,14.2,66,20.65,0.0,1007.98,0.0
2019-08-19 13:40,50.6304583333333,-96.9807683333333,6.0,9.2,278,981.64,14.5,64,20.65,0.0,1008.05,0.0
2019-08-19 13:50,50.6304566666667,-96.98077,6.8,10.9,284,981.77,14.9,62,20.65,0.0,1008.16,0.0
2019-08-19 14:00,50.6304566666667,-96.9807716666667,5.9,10.2,285,981.79,15.3,61,20.64,0.0,1008.16,167.4
2019-08-19 14:10,50.63044,-96.98079,7.8,12.0,285,981.87,15.6,59,20.63,0.0,1008.21,167.4
2019-08-19 14:20,50.630465,-96.980775,8.3,12.9,294,981.97,15.9,59,20.62,0.0,1008.29,167.4
2019-08-19 14:30,50.6304583333333,-96.9807916666667,8.8,13.4,285,982.06,16.1,59,20.58,0.0,1008.36,167.4
2019-08-19 14:40,50.630455,-96.9807883333333,7.3,12.6,285,982.10,16.3,58,20.55,0.0,1008.38,167.4
2019-08-19 14:50,50.630455,-96.980785,7.4,13.1,280,982.12,16.6,56,20.54,0.0,1008.38,167.4
2019-08-19 15:00,50.6304533333333,-96.98078,7.7,13.9,282,982.15,16.9,53,20.54,0.0,1008.37,192.6
2019-08-19 15:10,50.6304533333333,-96.98078,6.8,14.1,279,982.23,17.3,50,20.55,0.0,1008.42,192.6
2019-08-19 15:20,50.6304533333333,-96.98078,8.7,14.0,280,982.34,17.4,49,20.56,0.0,1008.51,192.6
2019-08-19 15:30,50.630465,-96.98079,10.1,16.3,277,982.36,17.5,46,20.58,0.0,1008.51,192.6
2019-08-19 15:40,50.6304483333333,-96.98078,8.1,14.5,279,982.44,17.8,45,20.61,0.0,1008.56,192.6
2019-08-19 15:50,50.6304533333333,-96.9807866666667,7.2,13.9,268,982.56,18.1,43,20.64,0.0,1008.65,192.6
2019-08-19 16:00,50.6304533333333,-96.9807733333333,10.0,16.8,264,982.67,18.2,42,20.67,0.0,1008.75,360.0
2019-08-19 16:10,50.6304483333333,-96.9807716666667,9.5,16.5,269,982.75,18.4,41,20.70,0.0,1008.81,360.0
2019-08-19 16:20,50.6304516666667,-96.9807733333333,9.3,15.3,268,982.88,18.4,41,20.72,0.0,1008.94,360.0
2019-08-19 16:30,50.6304533333333,-96.9807766666667,8.5,15.4,257,982.90,18.6,41,20.74,0.0,1008.94,360.0
2019-08-19 16:40,50.6304416666667,-96.98075,9.6,16.8,251,982.98,18.6,40,20.77,0.0,1009.01,360.0
2019-08-19 16:50,50.6304566666667,-96.98078,10.0,15.3,263,982.98,18.8,39,20.79,0.0,1008.98,360.0
2019-08-19 17:00,50.63046,-96.980785,9.7,16.1,280,982.90,19.0,39,20.81,0.0,1008.88,305.3
2019-08-19 17:10,50.6304583333333,-96.980785,9.1,17.1,258,983.06,19.1,39,20.83,0.0,1009.03,305.3
2019-08-19 17:20,50.63046,-96.980785,9.5,14.8,259,983.08,19.1,39,20.88,0.0,1009.05,305.3
2019-08-19 17:30,50.63046,-96.980785,9.0,14.7,272,983.11,19.3,39,20.93,0.0,1009.05,305.3
2019-08-19 17:40,50.6304583333333,-96.980785,9.0,16.8,273,983.18,19.5,39,20.99,0.0,1009.10,305.3
2019-08-19 17:50,50.6304566666667,-96.980785,7.9,13.2,281,983.10,19.6,38,21.03,0.0,1009.01,305.3
2019-08-19 18:00,50.630455,-96.9807866666667,7.7,13.3,257,983.14,19.6,39,21.05,0.0,1009.05,270.0
2019-08-19 18:10,50.6304533333333,-96.980775,8.0,14.3,266,983.12,19.8,38,21.07,0.0,1009.02,270.0
2019-08-19 18:20,50.63045,-96.9807766666667,7.2,13.2,269,983.22,20.1,37,21.11,0.0,1009.10,270.0
2019-08-19 18:30,50.6304566666667,-96.9807816666667,8.3,14.7,280,983.18,20.1,38,21.17,0.0,1009.06,270.0
2019-08-19 18:40,50.6304366666667,-96.9807316666667,6.8,14.2,271,983.20,20.1,38,21.22,0.0,1009.06,270.0
2019-08-19 18:50,50.63047,-96.980825,7.1,13.0,271,983.26,20.4,37,21.24,0.0,1009.11,270.0
2019-08-19 19:00,50.6304533333333,-96.9808,7.7,12.8,259,983.36,20.7,35,21.25,0.0,1009.19,270.0
2019-08-19 19:10,50.6304516666667,-96.9807733333333,7.7,13.9,259,983.27,20.6,34,21.28,0.0,1009.10,270.0
2019-08-19 19:20,50.630445,-96.98078,6.5,13.3,255,983.26,20.9,35,21.30,0.0,1009.07,270.0
2019-08-19 19:30,50.6304466666667,-96.9807866666667,8.1,13.9,264,983.25,21.1,33,21.32,0.0,1009.04,270.0
2019-08-19 19:40,50.6304416666667,-96.9807933333333,7.4,13.4,280,983.20,21.1,32,21.35,0.0,1008.99,270.0
2019-08-19 19:50,50.6304516666667,-96.9807516666667,7.9,15.8,259,983.23,21.3,32,21.31,0.0,1009.01,270.0
2019-08-19 20:00,50.63046,-96.9807716666667,8.1,14.7,264,983.20,21.5,32,21.29,0.0,1008.97,90.0
2019-08-19 20:10,50.630455,-96.9807716666667,7.9,16.6,252,983.25,21.5,33,21.33,0.0,1009.00,90.0
2019-08-19 20:20,50.630455,-96.980775,9.0,15.3,244,983.28,21.6,32,21.27,0.0,1009.02,90.0
2019-08-19 20:30,50.630455,-96.9807766666667,7.4,13.6,246,983.20,21.6,33,21.27,0.0,1008.95,90.0
2019-08-19 20:40,50.630455,-96.9807783333333,8.1,15.4,241,983.12,21.7,33,21.42,0.0,1008.84,90.0
2019-08-19 20:50,50.630455,-96.98078,8.3,13.1,241,983.08,21.6,32,21.45,0.0,1008.79,90.0
2019-08-19 21:00,50.6304466666667,-96.980765,8.4,14.0,228,983.01,21.8,31,21.44,0.0,1008.72,106.8
2019-08-19 21:10,50.6304566666667,-96.9807933333333,8.3,14.2,243,983.01,22.1,30,21.48,0.0,1008.69,106.8
2019-08-19 21:20,50.630455,-96.98078,5.8,12.9,255,982.89,22.3,29,21.53,0.0,1008.55,106.8
2019-08-19 21:30,50.63047,-96.9807866666667,5.7,11.3,230,982.85,22.5,29,21.53,0.0,1008.50,106.8
2019-08-19 21:40,50.6304583333333,-96.980785,7.8,15.9,237,982.89,22.7,27,21.50,0.0,1008.52,106.8
2019-08-19 21:50,50.630455,-96.9807816666667,6.4,11.8,240,982.88,22.8,26,21.48,0.0,1008.50,106.8
2019-08-19 22:00,50.63045,-96.9807783333333,5.9,12.0,241,982.81,22.9,26,21.48,0.0,1008.42,90.0
2019-08-19 22:10,50.6304516666667,-96.9807783333333,7.4,11.7,260,982.76,23.1,25,21.47,0.0,1008.36,90.0
2019-08-19 22:20,50.6304433333333,-96.9807833333333,4.6,9.4,263,982.85,22.9,26,21.49,0.0,1008.46,90.0
2019-08-19 22:30,50.630455,-96.98078,6.8,10.2,232,982.87,22.5,27,21.49,0.0,1008.50,90.0
2019-08-19 22:40,50.6304516666667,-96.980805,5.8,9.5,229,982.85,22.4,28,21.49,0.0,1008.48,90.0
2019-08-19 22:50,50.6304466666667,-96.9807883333333,6.0,13.1,227,982.87,23.1,27,21.46,0.0,1008.46,90.0
2019-08-19 23:00,50.6304533333333,-96.9807933333333,6.9,11.5,236,982.91,23.0,26,21.46,0.0,1008.50,252.3
2019-08-19 23:10,50.6304566666667,-96.9807883333333,6.1,9.9,235,982.96,22.7,27,21.46,0.0,1008.56,252.3
2019-08-19 23:20,50.630455,-96.9807866666667,5.9,8.6,243,983.11,22.5,27,21.40,0.0,1008.71,252.3
2019-08-19 23:30,50.630455,-96.9807866666667,5.0,8.8,266,983.10,22.9,27,21.43,0.0,1008.67,252.3
2019-08-19 23:40,50.6304566666667,-96.9807866666667,5.8,8.9,278,983.08,22.8,27,21.43,0.0,1008.65,252.3
